Location: Ash Swamp
(41.5170°N, 74.6157°W)
Time: 02:36:50
(UTC+00:00)

Cosmos 44 - Pass Details

Date: 14 July 2020
Orbit: 586 x 776 km, 65.1° (Epoch: 14 August)

Event Time Altitude Azimuth Distance (km) Brightness Sun altitude
Rises 01:05:10 0° 175° (S) 2,796 6.0 -6.1°
Reaches altitude 10° 01:07:49 10° 158° (SSE) 1,902 5.1 -6.5°
Maximum altitude 01:10:58 20° 111° (ESE) 1,372 4.3 -6.9°
Drops below altitude 10° 01:14:09 10° 63° (ENE) 1,940 5.4 -7.4°
Sets 01:16:54 0° 47° (NE) 2,870 6.4 -7.8°
